[[{"header":{"parameterUnit":"m.s-1","parameterCategory":1,"la1":30.2992,"la2":30.254,"lo1":-89.0895,"lo2":-89.0443,"dy":0.0025,"dx":0.0025,"nx":19,"ny":19,"refTime":"2026-04-17T21:00:00:Z","depth":0,"parameterNumber":2,"parameterNumberName":"U-component_of_WINDS"},"data":[0,0,0,-0.6123,-0.6121,-0.6002,-0.6001,-0.5872,-0.5871,0,0,0,0,0,0,0,0,0,0,0,-0.6172,-0.6172,-0.6123,-0.6121,-0.6002,-0.6001,-0.5872,-0.5871,0,0,0,0,0,0,0,0,0,0,0,-0.6173,-0.6172,-0.6172,-0.612,-0.6002,-0.6001,-0.5872,-0.5954,0,0,0,0,0,0,0,0,0,0,-0.6065,-0.6124,-0.6172,-0.6172,-0.612,-0.6002,-0.6001,-0.5957,-0.5948,-0.5935,0,-0.5928,0,-0.5897,-0.5863,-0.5863,0,0,0,-0.611,-0.6132,-0.6087,-0.6172,-0.6119,-0.6002,-0.6052,-0.5952,-0.5942,-0.5924,-0.5926,-0.592,-0.5895,-0.5863,-0.5862,-0.5824,-0.5825,0,0,-0.6116,-0.6158,-0.6094,-0.6082,-0.6102,-0.6056,-0.6049,-0.5946,-0.595,-0.5925,-0.5917,-0.5893,-0.5862,-0.5861,-0.5824,-0.5825,0,0,0,-0.6143,-0.6164,-0.6121,-0.6088,-0.6065,-0.6053,-0.6045,-0.5955,-0.5937,-0.5915,-0.5892,-0.5861,-0.586,-0.5824,-0.5824,-0.5883,0,0,0,-0.6146,-0.6179,-0.6124,-0.6149,-0.6067,-0.6008,-0.6056,-0.5944,-0.5931,-0.5892,-0.5861,-0.5859,-0.5823,-0.5824,-0.588,-0.5904,0,0,0,-0.6175,-0.6182,-0.617,-0.6151,-0.6102,-0.6009,-0.5985,-0.5941,-0.5918,-0.5863,-0.5859,-0.5823,-0.5824,-0.5878,-0.59,-0.5907,0,0,0,-0.6218,-0.6222,-0.6171,-0.6166,-0.6103,-0.6046,-0.5985,-0.594,-0.5901,-0.5861,-0.5823,-0.5824,-0.5877,-0.5898,-0.5905,-0.5923,-0.5933,0,0,-0.6246,-0.6227,-0.622,-0.6171,-0.6135,-0.6061,-0.6032,-0.5955,-0.591,-0.5856,-0.5854,-0.5881,-0.59,-0.5907,-0.5976,-0.5985,0,0,0,-0.6243,-0.624,-0.622,-0.6185,-0.6127,-0.608,-0.6003,-0.5974,-0.5926,-0.5891,-0.5884,-0.5893,-0.5896,-0.5902,-0.591,-0.591,-0.5829,-0.5828,-0.5828,-0.6343,-0.6288,-0.6274,-0.6204,-0.6171,-0.6092,-0.606,-0.6008,-0.596,-0.596,-0.5943,-0.5992,-0.6001,-0.6007,-0.6008,-0.5946,-0.5947,-0.5947,-0.5947,-0.638,-0.6367,-0.6305,-0.6269,-0.621,-0.6179,-0.6104,-0.6072,-0.6034,-0.5999,-0.5999,-0.5967,-0.6018,-0.6016,-0.5951,-0.595,-0.595,-0.5949,-0.5949,-0.6441,-0.6425,-0.6391,-0.6335,-0.6298,-0.6227,-0.6195,-0.6141,-0.609,-0.609,-0.6068,-0.6067,-0.606,-0.6083,-0.6083,-0.6083,-0.6083,-0.6084,-0.6084,-0.6518,-0.6478,-0.6458,-0.6398,-0.6369,-0.6324,-0.6245,-0.6215,-0.6168,-0.6131,-0.6131,-0.6085,-0.6033,-0.6022,-0.6086,-0.6086,-0.6085,-0.6085,-0.6085,-0.6579,-0.6557,-0.6526,-0.6498,-0.6423,-0.6391,-0.6323,-0.6266,-0.6233,-0.6219,-0.6173,-0.6143,-0.6119,-0.6112,-0.6103,-0.6184,-0.6184,-0.6184,-0.6184,-0.6632,-0.6614,-0.6572,-0.653,-0.6482,-0.6418,-0.6385,-0.6325,-0.6258,-0.6234,-0.6214,-0.6197,-0.6193,-0.6171,-0.6164,-0.6154,-0.6246,-0.6246,-0.6246,-0.6667,-0.6643,-0.6626,-0.6561,-0.6499,-0.6447,-0.6416,-0.6369,-0.6289,-0.6248,-0.6215,-0.6212,-0.6184,-0.6177,-0.6137,-0.6126,-0.6107,0,0]},{"header":{"parameterUnit":"m.s-1","parameterCategory":1,"la1":30.2992,"la2":30.254,"lo1":-89.0895,"lo2":-89.0443,"dy":0.0025,"dx":0.0025,"nx":19,"ny":19,"refTime":"2026-04-17T21:00:00:Z","depth":0,"parameterNumber":3,"parameterNumberName":"V-component_of_WINDS"},"data":[0,0,0,4.1979,4.1979,4.197,4.197,4.1972,4.1972,0,0,0,0,0,0,0,0,0,0,0,4.199,4.1991,4.1979,4.1979,4.197,4.197,4.1972,4.1972,0,0,0,0,0,0,0,0,0,0,0,4.199,4.1991,4.1991,4.1979,4.197,4.197,4.1972,4.1974,0,0,0,0,0,0,0,0,0,0,4.1981,4.1999,4.1991,4.1991,4.1979,4.197,4.197,4.1974,4.1974,4.1983,0,4.1992,0,4.1982,4.1973,4.1973,0,0,0,4.1973,4.1999,4.1989,4.1991,4.1979,4.197,4.1972,4.1974,4.1974,4.1983,4.1992,4.1992,4.1982,4.1974,4.1974,4.2042,4.2043,0,0,4.1974,4.1993,4.1989,4.199,4.1991,4.1973,4.1972,4.1974,4.1985,4.1992,4.1991,4.1982,4.1974,4.1974,4.2042,4.2043,0,0,0,4.1979,4.1994,4.1983,4.199,4.1987,4.1973,4.1972,4.1985,4.198,4.1991,4.1982,4.1974,4.1974,4.2041,4.2042,4.2091,0,0,0,4.1979,4.1997,4.1984,4.1996,4.1987,4.1986,4.1984,4.198,4.1979,4.1982,4.1974,4.1974,4.204,4.2042,4.2088,4.211,0,0,0,4.1988,4.1998,4.2,4.1997,4.1994,4.1985,4.198,4.1979,4.1974,4.1973,4.1974,4.204,4.2041,4.2085,4.2106,4.2134,0,0,0,4.2003,4.2043,4.2001,4.2042,4.1994,4.2016,4.198,4.1995,4.2,4.1974,4.2041,4.2042,4.2085,4.2103,4.2131,4.216,4.2174,0,0,4.2064,4.2051,4.2074,4.2036,4.207,4.2016,4.2057,4.2043,4.2026,4.2038,4.2039,4.2089,4.2106,4.2133,4.2247,4.2258,0,0,0,4.21,4.2116,4.2121,4.2127,4.2117,4.2111,4.2089,4.2084,4.2093,4.2036,4.2106,4.2116,4.2131,4.2144,4.2153,4.2165,4.2049,4.2049,4.2049,4.2214,4.2189,4.2225,4.2199,4.2205,4.2182,4.2185,4.2174,4.2148,4.2165,4.2168,4.224,4.2256,4.2263,4.2276,4.2182,4.2182,4.2182,4.2182,4.23,4.2319,4.2283,4.2305,4.2279,4.2297,4.2277,4.2258,4.2271,4.2236,4.2248,4.2211,4.2276,4.2286,4.2186,4.2185,4.2185,4.2184,4.2184,4.2371,4.2376,4.237,4.2375,4.2383,4.2356,4.2371,4.2346,4.2324,4.2336,4.2337,4.2336,4.2331,4.2338,4.2339,4.2339,4.2339,4.2339,4.2339,4.2447,4.2438,4.2453,4.2447,4.2448,4.2446,4.2424,4.2424,4.2418,4.2399,4.2399,4.2371,4.2287,4.2266,4.2343,4.2342,4.2342,4.2342,4.2341,4.2543,4.2517,4.254,4.2541,4.2532,4.2541,4.2511,4.2514,4.251,4.2518,4.2488,4.243,4.2415,4.2407,4.2389,4.2493,4.2493,4.2493,4.2493,4.2602,4.2592,4.261,4.2613,4.2613,4.2588,4.2615,4.26,4.2579,4.2576,4.2557,4.2532,4.2526,4.2514,4.2504,4.2487,4.2614,4.2614,4.2614,4.2659,4.2648,4.2676,4.2655,4.2646,4.264,4.2665,4.267,4.2642,4.2618,4.2572,4.2567,4.2527,4.2515,4.2489,4.2474,4.2443,0,0]}]]